Location: Bourg-d�Oueil
(42.8588°N, 0.4991°E)
Time: 17:15:40
(UTC+00:00)

Cosmos 1302 Rocket - Pass Details

Date: 16 June 2021
Orbit: 757 x 775 km, 74.0° (Epoch: 03 August)

Event Time Altitude Azimuth Distance (km) Brightness Sun altitude
Exits shadow 21:42:31 28° 153° (SSE) 1,410 4.8 -16.7°
Maximum altitude 21:44:40 42° 103° (ESE) 1,087 4.4 -16.9°
Drops below altitude 10° 21:49:35 10° 34° (NNE) 2,314 6.8 -17.4°
Sets 21:52:04 0° 27° (NNE) 3,241 7.7 -17.6°
